Total_Precipitation_Accumulation
0.06 0.17 0.35 0.50 0.84 1.25 1.18 0.70 0.45 0.43 0.47 0.45 0.53 0.53 0.50 0.51 0.71 1.16 0.65 0.37 0.26 0.30 0.32 0.39 0.48 0.49 0.58 0.63 0.67 0.72 0.69 0.67 0.69 0.71 0.69 0.74 0.75 0.70 0.66 0.69 0.77 0.82 0.83 0.77 0.76 0.76 0.74 0.72 0.75
0.08 0.17 0.31 0.57 1.11 1.57 1.23 0.60 0.39 0.43 0.44 0.42 0.46 0.54 0.62 0.43 0.29 0.31 0.38 0.31 0.18 0.19 0.22 0.25 0.36 0.40 0.45 0.53 0.63 0.72 0.68 0.66 0.68 0.68 0.67 0.66 0.65 0.69 0.71 0.76 0.82 0.80 0.77 0.70 0.70 0.66 0.60 0.62 0.69
0.09 0.16 0.28 0.63 0.94 1.13 0.86 0.43 0.36 0.34 0.44 0.50 0.51 0.50 0.56 0.40 0.28 0.24 0.28 0.21 0.13 0.12 0.16 0.27 0.33 0.35 0.42 0.45 0.54 0.65 0.62 0.61 0.63 0.61 0.61 0.59 0.62 0.68 0.74 0.77 0.77 0.70 0.69 0.66 0.63 0.56 0.53 0.55 0.63
0.10 0.15 0.31 0.54 0.54 0.53 0.46 0.33 0.30 0.30 0.42 0.49 0.58 0.59 0.49 0.36 0.32 0.30 0.23 0.18 0.10 0.11 0.14 0.23 0.29 0.27 0.29 0.34 0.42 0.54 0.56 0.55 0.55 0.52 0.54 0.56 0.58 0.65 0.66 0.64 0.65 0.65 0.64 0.62 0.58 0.51 0.54 0.59 0.66
0.11 0.19 0.45 0.50 0.42 0.44 0.40 0.31 0.29 0.26 0.37 0.51 0.51 0.64 0.65 0.49 0.33 0.26 0.20 0.21 0.14 0.12 0.13 0.18 0.27 0.24 0.24 0.28 0.35 0.43 0.49 0.48 0.47 0.47 0.46 0.52 0.56 0.61 0.60 0.54 0.55 0.61 0.61 0.56 0.51 0.50 0.54 0.59 0.64
0.10 0.24 0.41 0.37 0.33 0.31 0.29 0.25 0.28 0.29 0.38 0.60 0.51 0.62 0.84 0.68 0.44 0.35 0.25 0.24 0.21 0.16 0.11 0.16 0.27 0.28 0.29 0.30 0.35 0.41 0.40 0.42 0.46 0.45 0.40 0.44 0.48 0.50 0.53 0.52 0.54 0.57 0.59 0.52 0.47 0.53 0.56 0.59 0.63
0.09 0.19 0.25 0.26 0.23 0.26 0.24 0.25 0.27 0.26 0.44 0.72 0.56 0.73 1.07 1.04 0.65 0.49 0.47 0.36 0.32 0.27 0.24 0.22 0.26 0.31 0.36 0.41 0.41 0.43 0.42 0.41 0.44 0.45 0.44 0.44 0.44 0.43 0.46 0.56 0.60 0.55 0.52 0.51 0.46 0.47 0.48 0.49 0.53
0.04 0.08 0.14 0.18 0.18 0.19 0.17 0.19 0.21 0.35 0.47 0.60 0.49 0.73 1.24 1.16 0.77 0.69 0.75 0.65 0.68 0.62 0.47 0.32 0.30 0.37 0.36 0.36 0.47 0.53 0.48 0.46 0.45 0.46 0.47 0.47 0.47 0.46 0.49 0.55 0.64 0.64 0.58 0.55 0.50 0.46 0.46 0.52 0.59
0.04 0.08 0.14 0.14 0.14 0.13 0.13 0.14 0.18 0.31 0.46 0.62 0.65 0.72 0.95 0.85 0.83 0.91 1.02 1.08 1.10 1.15 0.95 0.59 0.46 0.47 0.50 0.44 0.46 0.61 0.62 0.54 0.54 0.57 0.59 0.72 0.84 0.75 0.86 0.82 0.90 0.88 0.81 0.77 0.74 0.72 0.70 0.65 0.60
0.04 0.09 0.10 0.07 0.08 0.12 0.11 0.14 0.22 0.36 0.61 0.89 0.90 0.91 1.08 1.01 0.84 0.90 0.98 1.14 1.24 1.34 1.23 0.92 0.78 0.60 0.54 0.49 0.64 0.87 0.82 0.84 0.88 0.95 0.93 1.18 1.37 1.28 1.00 1.14 1.40 1.38 1.35 1.23 1.21 1.21 1.01 0.81 0.78
0.03 0.04 0.05 0.06 0.06 0.08 0.11 0.13 0.21 0.40 0.77 1.21 1.46 1.47 1.34 1.21 1.14 1.10 1.09 1.24 1.45 1.49 1.36 1.13 1.03 0.91 0.75 0.87 0.84 0.98 1.18 1.32 1.17 1.08 1.15 1.48 1.40 1.16 1.16 1.28 1.46 1.68 1.61 1.51 1.66 1.77 1.49 1.42 1.67
0.02 0.02 0.02 0.04 0.04 0.06 0.10 0.13 0.22 0.41 0.76 1.03 1.25 1.53 1.65 1.51 1.55 1.53 1.49 1.71 1.90 1.78 1.62 1.43 1.24 1.11 1.08 1.07 1.03 1.08 1.15 1.32 1.31 1.37 1.36 1.57 1.76 1.69 1.70 1.81 1.78 1.89 2.05 2.33 2.23 2.29 2.10 1.99 1.92
0.02 0.02 0.03 0.04 0.05 0.07 0.09 0.19 0.30 0.47 0.60 0.78 0.94 1.10 1.37 1.71 2.04 2.16 2.27 2.61 2.47 2.29 2.17 1.96 1.62 1.58 1.52 1.57 1.59 1.34 1.35 1.44 1.66 1.81 1.76 1.74 1.93 1.96 2.04 2.07 2.11 1.96 2.08 2.28 2.51 2.41 2.48 2.52 2.30
0.02 0.03 0.04 0.05 0.06 0.08 0.13 0.27 0.31 0.51 0.59 0.70 0.90 1.09 1.63 2.21 2.39 2.67 3.08 3.33 3.19 2.95 2.96 2.75 2.40 2.34 2.24 2.04 1.96 1.87 1.70 1.82 1.90 1.99 1.99 1.99 2.21 2.37 2.32 2.17 2.18 2.08 2.10 2.21 2.42 2.48 2.82 2.79 2.72
0.02 0.05 0.07 0.08 0.09 0.12 0.18 0.37 0.45 0.58 0.67 0.78 1.12 1.32 1.76 2.11 2.39 2.53 3.01 3.33 3.29 3.23 3.39 3.40 3.24 3.21 3.06 2.77 2.46 2.24 2.18 2.09 2.27 2.36 2.29 2.34 2.39 2.55 2.48 2.37 2.19 2.19 2.23 2.38 2.45 2.55 2.83 2.85 2.77
0.04 0.11 0.19 0.16 0.14 0.16 0.26 0.67 0.61 0.66 0.87 1.11 1.35 1.49 1.73 1.90 2.27 2.41 2.78 3.26 3.49 3.50 3.71 3.93 3.88 3.87 3.65 3.39 3.07 2.81 2.60 2.53 2.53 2.50 2.49 2.41 2.54 2.60 2.64 2.43 2.17 2.29 2.25 2.39 2.68 2.78 2.93 3.07 3.08
0.08 0.14 0.27 0.28 0.22 0.18 0.35 0.80 0.81 0.88 1.02 1.14 1.26 1.52 1.67 1.66 2.02 2.45 2.77 3.33 3.74 3.88 4.25 4.61 4.68 4.59 4.23 3.83 3.59 3.47 3.22 2.98 2.80 2.76 2.65 2.56 2.58 2.51 2.61 2.41 2.30 2.37 2.53 2.57 2.41 2.90 3.17 3.22 3.20
0.09 0.09 0.16 0.23 0.22 0.23 0.41 0.60 0.73 0.93 1.09 1.22 1.23 1.36 1.39 1.52 1.99 2.53 2.87 3.24 3.88 4.39 4.98 5.02 4.96 5.21 4.98 4.64 4.37 4.11 3.69 3.33 3.03 2.89 2.76 2.56 2.46 2.39 2.62 2.32 2.29 2.46 2.67 2.70 2.76 3.14 3.25 3.10 3.23
0.07 0.12 0.20 0.25 0.23 0.36 0.55 0.71 0.83 0.95 1.01 1.19 1.29 1.25 1.29 1.59 2.01 2.45 2.85 3.27 3.68 4.24 4.79 5.32 5.39 5.28 5.11 4.79 4.30 3.90 3.50 3.28 3.03 2.80 2.61 2.53 2.49 2.54 2.88 2.54 2.69 2.60 2.62 2.66 2.82 3.03 2.99 2.85 3.21
0.10 0.16 0.25 0.30 0.24 0.35 0.54 0.81 0.97 0.97 0.95 1.04 1.22 1.38 1.41 1.67 2.00 2.43 2.90 3.15 3.35 3.69 4.12 4.49 4.73 4.45 4.11 3.87 3.76 3.60 3.55 3.17 3.01 2.98 2.99 2.73 2.73 2.68 2.65 2.77 2.67 2.68 2.73 2.56 2.65 2.92 2.77 2.43 2.81
0.13 0.14 0.15 0.20 0.22 0.36 0.58 0.99 1.11 0.91 0.87 0.95 1.08 1.36 1.58 1.64 1.91 2.23 2.67 2.88 2.99 3.15 3.28 3.40 3.57 3.63 3.62 3.65 3.74 3.78 3.89 3.56 3.43 3.36 3.26 2.88 2.78 2.71 2.72 2.62 2.51 2.58 2.51 2.43 2.41 2.60 2.71 2.50 2.48
0.15 0.09 0.07 0.11 0.24 0.53 0.65 1.15 1.29 1.05 1.00 1.04 1.08 1.22 1.33 1.51 1.60 1.71 2.03 2.45 2.43 2.46 2.71 3.13 3.29 3.42 3.61 3.86 3.83 3.81 3.70 3.59 3.59 3.69 3.66 3.52 3.25 2.98 2.76 2.56 2.43 2.32 2.22 2.30 2.08 2.32 2.51 2.60 2.27
0.09 0.06 0.07 0.11 0.24 0.44 0.54 0.85 1.13 1.17 1.12 1.04 1.02 1.13 1.20 1.29 1.38 1.46 1.66 2.08 2.17 2.08 2.36 2.84 3.34 3.58 3.75 3.94 4.02 4.21 4.03 3.86 3.75 3.80 3.85 3.63 3.37 3.06 2.73 2.63 2.52 2.40 2.25 2.17 2.10 2.26 2.19 2.23 2.18
0.05 0.09 0.17 0.24 0.44 0.80 0.65 0.70 1.13 1.14 0.99 0.90 0.82 0.87 0.97 0.94 1.02 1.20 1.52 1.94 2.15 2.23 2.47 2.83 3.24 3.56 3.74 3.85 3.89 3.92 3.88 3.83 3.62 3.50 3.25 2.92 2.78 2.67 2.47 2.41 2.35 2.22 2.19 2.17 2.12 2.09 2.06 2.11 2.18
0.07 0.17 0.56 0.88 1.15 1.20 0.64 0.67 1.03 0.88 0.83 0.76 0.83 0.87 0.78 0.78 0.86 0.88 1.00 1.16 1.31 1.50 1.74 1.98 2.28 2.64 2.91 3.10 3.16 3.11 3.29 3.31 3.04 2.79 2.60 2.31 2.09 1.92 1.91 2.00 2.01 1.95 1.97 2.00 2.09 1.97 1.88 1.98 2.11
0.07 0.12 0.36 0.58 0.74 0.87 0.79 1.10 1.12 0.77 0.67 0.67 0.74 0.73 0.60 0.55 0.55 0.56 0.61 0.69 0.94 1.22 1.57 1.75 1.80 1.94 2.23 2.42 2.48 2.51 2.59 2.53 2.36 2.40 2.16 1.94 1.78 1.66 1.73 1.82 1.78 1.75 1.78 1.74 1.94 1.79 1.72 1.82 1.86
0.06 0.07 0.12 0.20 0.30 0.59 0.91 1.26 1.18 0.83 0.73 0.65 0.55 0.49 0.47 0.38 0.38 0.43 0.46 0.51 0.69 0.98 1.24 1.37 1.50 1.72 2.00 2.21 2.18 2.14 1.99 1.95 2.00 1.98 1.83 1.72 1.74 1.65 1.70 1.65 1.71 1.73 1.76 1.83 1.93 1.79 1.74 1.92 1.86
0.07 0.08 0.10 0.15 0.31 0.54 0.83 1.19 1.31 1.04 0.93 0.72 0.64 0.66 0.49 0.37 0.35 0.43 0.42 0.45 0.54 0.70 0.95 1.15 1.32 1.58 1.74 1.86 1.87 1.78 1.78 1.72 1.74 1.69 1.64 1.60 1.67 1.73 1.75 1.71 1.76 1.73 1.71 1.74 1.80 1.60 1.62 1.82 1.87
0.10 0.10 0.11 0.12 0.16 0.37 0.74 1.01 0.94 0.89 0.79 0.66 0.66 0.64 0.55 0.49 0.38 0.35 0.38 0.43 0.56 0.71 0.91 1.16 1.35 1.46 1.56 1.57 1.60 1.66 1.62 1.61 1.65 1.59 1.53 1.54 1.69 1.75 1.71 1.67 1.68 1.67 1.63 1.69 1.72 1.55 1.67 1.79 1.83
0.11 0.11 0.12 0.16 0.15 0.18 0.40 0.75 0.66 0.63 0.66 0.64 0.63 0.63 0.60 0.52 0.48 0.46 0.52 0.54 0.63 0.78 0.90 1.17 1.42 1.46 1.54 1.60 1.73 1.85 1.89 1.92 1.85 1.64 1.53 1.58 1.66 1.72 1.75 1.73 1.71 1.61 1.63 1.80 1.85 1.74 1.81 1.88 1.86